TimeMDT,TemperatureF,Dew PointF,Humidity,Sea Level PressureIn,VisibilityMPH,Wind Direction,Wind SpeedMPH,Gust SpeedMPH,PrecipitationIn,Events,Conditions,WindDirDegrees,DateUTC
12:54 AM,64.0,60.1,87,30.04,10.0,East,6.9,-,0.00,,Overcast,80,2013-07-15 06:54:00
1:19 AM,64.4,60.8,88,30.30,10.0,East,6.9,-,N/A,,Overcast,100,2013-07-15 07:19:00
1:54 AM,64.0,60.1,87,30.04,10.0,Calm,Calm,-,N/A,,Overcast,0,2013-07-15 07:54:00
2:12 AM,64.4,60.8,88,30.30,10.0,East,3.5,-,N/A,,Overcast,90,2013-07-15 08:12:00
2:31 AM,62.6,60.8,94,30.29,9.0,ESE,3.5,-,N/A,,Overcast,110,2013-07-15 08:31:00
2:41 AM,62.6,60.8,94,30.29,9.0,SE,5.8,-,N/A,,Overcast,140,2013-07-15 08:41:00
2:54 AM,63.0,60.1,90,30.03,9.0,Calm,Calm,-,N/A,,Overcast,0,2013-07-15 08:54:00
3:02 AM,62.6,60.8,94,30.28,9.0,Calm,Calm,-,N/A,,Overcast,0,2013-07-15 09:02:00
3:54 AM,63.0,60.1,90,30.03,10.0,East,4.6,-,N/A,,Overcast,90,2013-07-15 09:54:00
4:54 AM,63.0,60.1,90,30.03,8.0,East,5.8,-,0.00,,Light Drizzle,80,2013-07-15 10:54:00
5:00 AM,62.6,60.8,94,30.29,8.0,East,4.6,-,0.00,,Light Drizzle,80,2013-07-15 11:00:00
5:11 AM,62.6,60.8,94,30.29,8.0,ESE,5.8,-,0.00,,Light Drizzle,110,2013-07-15 11:11:00
5:36 AM,62.6,60.8,94,30.29,3.0,ESE,8.1,-,0.00,,Overcast,110,2013-07-15 11:36:00
5:43 AM,62.6,60.8,94,30.29,3.0,ESE,8.1,-,0.01,,Overcast,120,2013-07-15 11:43:00
5:54 AM,62.1,60.1,93,30.04,3.0,ESE,10.4,-,0.05,,Light Drizzle,120,2013-07-15 11:54:00
6:10 AM,62.6,60.8,94,30.30,6.0,East,9.2,-,0.00,,Light Drizzle,100,2013-07-15 12:10:00
6:54 AM,62.1,60.1,93,30.05,8.0,SE,10.4,-,0.01,,Light Drizzle,130,2013-07-15 12:54:00
7:42 AM,60.8,57.2,88,30.32,2.5,SE,13.8,20.7,0.00,Rain,Light Rain,140,2013-07-15 13:42:00
7:54 AM,60.1,59.0,96,30.12,1.0,SE,15.0,-,0.00,Rain,Light Rain,130,2013-07-15 13:54:00
8:38 AM,59.0,59.0,100,30.33,0.5,SE,15.0,-,0.04,Fog-Rain,Light Rain,130,2013-07-15 14:38:00
8:54 AM,59.0,57.9,96,30.13,0.5,SE,13.8,-,0.06,Fog-Rain,Light Rain,140,2013-07-15 14:54:00
9:40 AM,59.0,57.2,94,30.34,3.0,SSE,13.8,-,0.01,Rain,Light Rain,160,2013-07-15 15:40:00
9:54 AM,59.0,57.9,96,30.17,5.0,SSE,10.4,-,0.01,,Overcast,160,2013-07-15 15:54:00
10:10 AM,57.2,57.2,100,30.34,6.0,SSE,15.0,-,N/A,,Overcast,150,2013-07-15 16:10:00
10:54 AM,59.0,57.9,96,30.16,5.0,SSE,11.5,-,N/A,,Overcast,160,2013-07-15 16:54:00
11:20 AM,59.0,57.2,94,30.35,1.8,SE,11.5,-,0.00,Rain,Light Rain,130,2013-07-15 17:20:00
11:54 AM,57.9,57.0,97,30.17,1.2,SSE,11.5,-,0.01,Rain,Light Rain,150,2013-07-15 17:54:00
12:28 PM,59.0,59.0,100,30.34,3.0,SSE,8.1,-,0.00,Rain,Light Rain,160,2013-07-15 18:28:00
12:54 PM,62.1,61.0,96,30.14,6.0,South,8.1,-,0.00,,Overcast,170,2013-07-15 18:54:00
1:54 PM,64.0,59.0,84,30.11,10.0,SW,5.8,-,N/A,,Mostly Cloudy,220,2013-07-15 19:54:00
2:54 PM,64.9,55.9,73,30.10,10.0,SSW,4.6,-,N/A,,Mostly Cloudy,200,2013-07-15 20:54:00
4:02 PM,69.8,53.6,56,30.29,10.0,South,4.6,-,N/A,,Mostly Cloudy,170,2013-07-15 22:02:00
4:54 PM,70.0,52.0,53,30.04,10.0,SW,6.9,-,N/A,,Mostly Cloudy,230,2013-07-15 22:54:00
5:54 PM,69.1,50.0,51,30.04,10.0,SSE,9.2,-,N/A,,Scattered Clouds,160,2013-07-15 23:54:00
6:54 PM,69.1,46.9,45,30.04,10.0,SE,12.7,-,N/A,,Scattered Clouds,140,2013-07-16 00:54:00
7:54 PM,66.0,45.0,47,30.07,10.0,SE,11.5,-,N/A,,Scattered Clouds,130,2013-07-16 01:54:00
8:54 PM,63.0,44.1,50,30.10,10.0,ESE,10.4,-,N/A,,Scattered Clouds,120,2013-07-16 02:54:00
9:54 PM,61.0,45.0,56,30.14,10.0,SE,10.4,-,N/A,,Partly Cloudy,130,2013-07-16 03:54:00
10:54 PM,57.0,48.0,72,30.18,10.0,WSW,4.6,-,N/A,,Partly Cloudy,250,2013-07-16 04:54:00
11:54 PM,57.9,46.9,67,30.17,10.0,South,6.9,-,N/A,,Partly Cloudy,190,2013-07-16 05:54:00